Lake Tulloch Weather Center

Moon Phase Calendar



Lake Tulloch Water Level
Online Cameras

 


      

Current Conditions in Copper Cove Village
6/12/2021 11:24:59 PM

66°F
Feels Like 66
Clear
Humidity
63%
Pressure
29.88"
Wind
5 mph (NNW)
Dew Point
58°F
UV Index
0/10 (Low)
Visibility
6 mi

Hourly Forecast

Date & Time Sat, Jun 12
11:00 PM
Sun, Jun 13
12:00 AM
Sun, Jun 13
1:00 AM
Sun, Jun 13
2:00 AM
Sun, Jun 13
3:00 AM
Sun, Jun 13
4:00 AM
Sun, Jun 13
5:00 AM
Sun, Jun 13
6:00 AM
Sun, Jun 13
7:00 AM
Sun, Jun 13
8:00 AM
Sun, Jun 13
9:00 AM
Sun, Jun 13
10:00 AM
Sun, Jun 13
11:00 AM
Sun, Jun 13
12:00 PM
Sun, Jun 13
1:00 PM
Sun, Jun 13
2:00 PM
Sun, Jun 13
3:00 PM
Sun, Jun 13
4:00 PM
Sun, Jun 13
5:00 PM
Sun, Jun 13
6:00 PM
Sun, Jun 13
7:00 PM
Sun, Jun 13
8:00 PM
Sun, Jun 13
9:00 PM
Sun, Jun 13
10:00 PM
Sun, Jun 13
11:00 PM
Mon, Jun 14
12:00 AM
Mon, Jun 14
1:00 AM
Mon, Jun 14
2:00 AM
Mon, Jun 14
3:00 AM
Mon, Jun 14
4:00 AM
Mon, Jun 14
5:00 AM
Mon, Jun 14
6:00 AM
Mon, Jun 14
7:00 AM
Mon, Jun 14
8:00 AM
Mon, Jun 14
9:00 AM
Mon, Jun 14
10:00 AM
Mon, Jun 14
11:00 AM
Mon, Jun 14
12:00 PM
Mon, Jun 14
1:00 PM
Mon, Jun 14
2:00 PM
Mon, Jun 14
3:00 PM
Mon, Jun 14
4:00 PM
Mon, Jun 14
5:00 PM
Mon, Jun 14
6:00 PM
Mon, Jun 14
7:00 PM
Mon, Jun 14
8:00 PM
Mon, Jun 14
9:00 PM
Mon, Jun 14
10:00 PM
Condition
Clear

Clear

Clear

Clear

Clear

Clear

Clear

Clear

Clear

Clear

Clear

Clear

Clear

Clear

Clear

Clear

Clear

Clear

Clear

Clear

Clear

Clear

Clear

Clear

Clear

Clear

Clear

Clear

Clear

Clear

Clear

Clear

Clear

Clear

Clear

Clear

Clear

Clear

Clear

Clear

Clear

Clear

Clear

Clear

Clear

Clear

Clear

Clear
Temperature 70°F69°F67°F65°F63°F61°F61°F61°F66°F72°F77°F80°F84°F87°F90°F91°F92°F92°F91°F88°F84°F76°F70°F67°F65°F63°F61°F60°F59°F59°F58°F58°F63°F68°F72°F76°F80°F83°F86°F88°F89°F89°F88°F85°F81°F74°F68°F64°F
Feels Like 70°F68°F67°F65°F63°F61°F60°F61°F66°F71°F76°F80°F82°F84°F87°F88°F89°F89°F88°F85°F82°F76°F69°F66°F64°F62°F61°F60°F59°F58°F58°F57°F62°F67°F72°F76°F80°F82°F84°F85°F86°F86°F85°F82°F79°F72°F66°F62°F
Cloudiness 0%0%0%0%0%0%0%0%0%0%0%0%0%0%0%0%0%0%0%0%0%0%0%0%0%0%0%0%0%0%0%3%2%2%1%1%1%0%0%0%0%0%0%0%0%0%0%0%
Visibility 6 mi6 mi6 mi6 mi6 mi6 mi6 mi6 mi6 mi6 mi6 mi6 mi6 mi6 mi6 mi6 mi6 mi6 mi6 mi6 mi6 mi6 mi6 mi6 mi6 mi6 mi6 mi6 mi6 mi6 mi6 mi6 mi6 mi6 mi6 mi6 mi6 mi6 mi6 mi6 mi6 mi6 mi6 mi6 mi6 mi6 mi6 mi6 mi
Precipitation 0%0%0%0%0%0%0%0%0%0%0%0%0%0%0%0%0%0%0%0%0%0%0%0%0%0%0%0%0%0%0%0%0%0%0%0%0%0%0%0%0%0%0%0%0%0%0%0%
Humidity 67%68%70%71%73%74%74%73%62%52%44%37%32%29%27%25%24%23%24%27%31%39%47%54%60%66%72%76%80%84%88%90%77%65%56%47%40%35%30%27%25%24%24%25%24%26%32%38%
Dew Point 58°F58°F57°F56°F55°F52°F52°F52°F52°F53°F52°F52°F50°F50°F50°F50°F50°F49°F49°F49°F49°F49°F49°F49°F50°F50°F51°F52°F52°F53°F53°F54°F54°F55°F55°F54°F53°F52°F50°F49°F48°F48°F47°F44°F39°F36°F36°F37°F
Pressure 29.88"29.88"29.88"29.88"29.88"29.85"29.85"29.88"29.88"29.88"29.88"29.88"29.88"29.85"29.85"29.83"29.83"29.83"29.83"29.83"29.85"29.88"29.91"29.94"29.97"29.97"29.97"29.97"29.97"29.97"29.97"30"30"30"30"30"29.97"29.97"29.97"29.94"29.94"29.91"29.91"29.91"29.94"29.97"30"30.03"
Wind Speed 6.2 mph5.7 mph5.7 mph5.4 mph5.4 mph5.1 mph4.2 mph4.4 mph4.6 mph5.1 mph5.8 mph6.5 mph7 mph7.4 mph7.7 mph8.3 mph8.7 mph9.4 mph11.7 mph13.9 mph13.3 mph10.9 mph9.3 mph8.5 mph8.1 mph7.6 mph7 mph6.3 mph5.9 mph5.3 mph5.2 mph5 mph5.1 mph6.2 mph6.4 mph6.5 mph7.3 mph8 mph7.8 mph8.3 mph9.4 mph10.5 mph12 mph13.9 mph14.7 mph10.4 mph8.2 mph7.8 mph
Wind
Direction
351°
N
358°
N

N

N
357°
N

N

N
356°
N
340°
NNW
315°
NW
298°
WNW
286°
WNW
279°
W
270°
W
266°
W
262°
W
265°
W
276°
W
288°
WNW
296°
WNW
303°
WNW
315°
NW
323°
NW
332°
NNW
338°
NNW
340°
NNW
345°
NNW
346°
NNW
347°
NNW
345°
NNW
339°
NNW
351°
N
343°
NNW
314°
NW
305°
NW
292°
WNW
282°
WNW
277°
W
271°
W
266°
W
269°
W
273°
W
279°
W
286°
WNW
296°
WNW
316°
NW
323°
NW
333°
NNW

Daily Forecast

Date High Low Precip. Humidity
Today
Jun 12

Clear
91 °F
56 °F
0%
27%
Sunday
Jun 13

Clear
92 °F
61 °F
0%
26%
Monday
Jun 14

Clear
88 °F
58 °F
0%
26%
Tuesday
Jun 15

Clear
93 °F
57 °F
0%
13%
Wednesday
Jun 16

Clear
105 °F
63 °F
0%
7%
Thursday
Jun 17

Clouds
112 °F
73 °F
0%
4%
Friday
Jun 18

Clear
115 °F
77 °F
0%
5%
Saturday
Jun 19

Clear
115 °F
80 °F
0%
6%
Sunday
Jun 20

Clear
105 °F
71 °F
0%
6%
Monday
Jun 21

Clear
98 °F
61 °F
0%
11%
Tuesday
Jun 22

Clear
94 °F
55 °F
0%
17%
Wednesday
Jun 23

Clear
96 °F
61 °F
0%
16%
Thursday
Jun 24

Clouds
88 °F
58 °F
0%
27%
Friday
Jun 25

Clear
93 °F
56 °F
0%
25%
Saturday
Jun 26

Clear
96 °F
61 °F
0%
19%
Sunday
Jun 27

Clear
107 °F
64 °F
0%
10%

Temperature 8-14 Day Outlook



Precipitation 8-14 Day Outlook




Quick Links
Lake Tulloch News
Lake Tulloch Photos
Lake Tulloch Videos




About Us
Contact Us
Site Map
Search Site
Advertise With Us
   
Tulloch.LakesOnline.com
THE LAKE TULLOCH WEBSITE

Copyright 2021, Lakes Online
Privacy    |    Legal